Clarksdale Fletcher Field Air, MS

12:40 PM CST on November 14, 2019 (GMT -0600)
Fletcher

Weather History for KCKM - September, 2019

Change the Weather History Date:

Wednesday, September 25, 2019

  Actual Average (KUOX) Record (KUOX)
Temperature  
Mean Temperature 80 °F -  
Max Temperature 93 °F 79 °F 96 °F (2016)
Min Temperature 68 °F 56 °F 37 °F (1965)
Cooling Degree Days 16    
Growing Degree Days 30 (Base 50)    
Moisture  
Dew Point 69 °F    
Average Humidity 73    
Maximum Humidity 100    
Minimum Humidity 41    
Precipitation  
Precipitation 0.00 in - - ()
Sea Level Pressure  
Sea Level Pressure 29.89 in    
Wind  
Wind Speed 3 mph ()    
Max Wind Speed 14 mph    
Max Gust Speed 18 mph    
Visibility 9.6 miles    
Events      
Averages and records for this station are not official NWS values.
T = Trace of Precipitation, MM = Missing Value Source: Averaged Metar Reports

Daily Weather History Graph

Daily Weather History Graph

Search for Another Location

Airport or City:

Astronomy

Sep. 25, 2019 Rise Set
Actual Time 6:52 AM CDT 6:54 PM CDT
Civil Twilight 6:27 AM CDT 7:19 PM CDT
Nautical Twilight 5:57 AM CDT 7:48 PM CDT
Astronomical Twilight 5:28 AM CDT 8:18 PM CDT
Moon 2:59 AM CDT (9/25) 5:14 PM CDT (9/25)
Length of Visible Light 12h 52m
Length of Day
12h 02m
Waning Crescent, 14% of the Moon is Illuminated
Sep 25
Waning Crescent
Sep 28
New
Oct 5
First Quarter
Oct 13
Full
Oct 21
Last Quarter

Hourly Weather History & Observations

Time (CDT) Temp. Heat Index Dew Point Humidity Pressure Visibility Wind Dir Wind Speed Gust Speed Precip Events Conditions
12:15 AM 71.6 °F - 66.2 °F 83% 29.89 in 9.0 mi Calm Calm - N/A   Unknown
12:35 AM 69.8 °F - 68.0 °F 94% 29.88 in 10.0 mi Calm Calm - N/A   Unknown
12:55 AM 69.8 °F - 68.0 °F 94% 29.88 in 9.0 mi Calm Calm - N/A   Unknown
1:35 AM 69.8 °F - 69.8 °F 100% 29.87 in 10.0 mi Calm Calm - N/A   Unknown
1:55 AM 69.8 °F - 68.0 °F 94% 29.87 in 10.0 mi Calm Calm - N/A   Unknown
2:15 AM 69.8 °F - 68.0 °F 94% 29.86 in 10.0 mi Calm Calm - N/A   Unknown
2:35 AM 69.8 °F - 68.0 °F 94% 29.86 in 10.0 mi Calm Calm - N/A   Unknown
2:55 AM 68.0 °F - 68.0 °F 100% 29.86 in 10.0 mi Calm Calm - N/A   Unknown
3:15 AM 69.8 °F - 68.0 °F 94% 29.85 in 10.0 mi Calm Calm - N/A   Unknown
3:35 AM 69.8 °F - 68.0 °F 94% 29.85 in 10.0 mi Calm Calm - N/A   Unknown
3:55 AM 69.8 °F - 66.2 °F 88% 29.86 in 10.0 mi Calm Calm - N/A   Unknown
4:15 AM 68.0 °F - 68.0 °F 100% 29.87 in 10.0 mi Calm Calm - N/A   Unknown
4:35 AM 68.0 °F - 68.0 °F 100% 29.88 in 10.0 mi Calm Calm - N/A   Unknown
4:55 AM 69.8 °F - 68.0 °F 94% 29.89 in 7.0 mi Calm Calm - N/A   Unknown
5:15 AM 69.8 °F - 68.0 °F 94% 29.89 in 2.5 mi Calm Calm - N/A   Mist
5:35 AM 68.0 °F - 68.0 °F 100% 29.89 in 2.5 mi Calm Calm - N/A   Mist
6:15 AM 68.0 °F - 68.0 °F 100% 29.91 in 10.0 mi Calm Calm - N/A   Unknown
6:35 AM 69.8 °F - 69.8 °F 100% 29.91 in 10.0 mi Calm Calm - N/A   Unknown
6:55 AM 69.8 °F - 69.8 °F 100% 29.92 in 9.0 mi Calm Calm - N/A   Unknown
7:15 AM 71.6 °F - 71.6 °F 100% 29.92 in 10.0 mi Calm Calm - N/A   Unknown
7:35 AM 73.4 °F - 73.4 °F 100% 29.92 in 10.0 mi Calm Calm - N/A   Unknown
7:55 AM 75.2 °F - 75.2 °F 100% 29.92 in 9.0 mi Calm Calm - N/A   Unknown
8:15 AM 77.0 °F - 75.2 °F 94% 29.92 in 10.0 mi Calm Calm - N/A   Unknown
8:35 AM 78.8 °F - 75.2 °F 89% 29.93 in 10.0 mi SW 5.8 mph - N/A   Unknown
8:55 AM 80.6 °F 86.2 °F 75.2 °F 84% 29.93 in 10.0 mi WSW 5.8 mph - N/A   Unknown
9:15 AM 82.4 °F 88.2 °F 73.4 °F 74% 29.93 in 10.0 mi WSW 10.4 mph - N/A   Unknown
9:35 AM 84.2 °F 90.9 °F 73.4 °F 70% 29.93 in 10.0 mi WSW 10.4 mph - N/A   Unknown
9:55 AM 84.2 °F 89.6 °F 71.6 °F 66% 29.93 in 10.0 mi WSW 11.5 mph - N/A   Unknown
10:35 AM 86.0 °F 91.8 °F 71.6 °F 62% 29.93 in 10.0 mi WSW 10.4 mph - N/A   Unknown
10:55 AM 89.6 °F 96.2 °F 71.6 °F 55% 29.93 in 10.0 mi SW 9.2 mph - N/A   Unknown
11:15 AM 89.6 °F 96.2 °F 71.6 °F 55% 29.93 in 10.0 mi WSW 9.2 mph 15.0 mph N/A   Unknown
11:35 AM 89.6 °F 94.7 °F 69.8 °F 52% 29.93 in 10.0 mi SW 9.2 mph 16.1 mph N/A   Unknown
12:15 PM 91.4 °F 96.8 °F 69.8 °F 49% 29.92 in 10.0 mi SW 12.7 mph 18.4 mph N/A   Unknown
12:35 PM 91.4 °F 96.8 °F 69.8 °F 49% 29.91 in 10.0 mi SW 13.8 mph - N/A   Unknown
12:55 PM 89.6 °F 94.7 °F 69.8 °F 52% 29.90 in 10.0 mi SSW 11.5 mph - N/A   Unknown
1:15 PM 91.4 °F 96.8 °F 69.8 °F 49% 29.89 in 10.0 mi SW 8.1 mph 15.0 mph N/A   Unknown
1:35 PM 91.4 °F 96.8 °F 69.8 °F 49% 29.88 in 10.0 mi WSW 10.4 mph - N/A   Unknown
1:55 PM 91.4 °F 96.8 °F 69.8 °F 49% 29.87 in 10.0 mi SW 12.7 mph - N/A   Unknown
2:15 PM 93.2 °F 98.8 °F 69.8 °F 46% 29.87 in 10.0 mi West 9.2 mph - N/A   Unknown
2:35 PM 93.2 °F 97.7 °F 68.0 °F 44% 29.87 in 10.0 mi WSW 10.4 mph - N/A   Unknown
2:55 PM 93.2 °F 97.7 °F 68.0 °F 44% 29.86 in 10.0 mi West 9.2 mph 17.3 mph N/A   Unknown
3:15 PM 93.2 °F 97.7 °F 68.0 °F 44% 29.86 in 10.0 mi SW 9.2 mph 17.3 mph N/A   Unknown
3:35 PM 93.2 °F 97.7 °F 68.0 °F 44% 29.86 in 10.0 mi SW 9.2 mph - N/A   Unknown
4:15 PM 93.2 °F 96.2 °F 66.2 °F 41% 29.84 in 10.0 mi SW 8.1 mph - N/A   Unknown
4:35 PM 93.2 °F 96.2 °F 66.2 °F 41% 29.84 in 10.0 mi WSW 8.1 mph - N/A   Unknown
5:15 PM 93.2 °F 96.2 °F 66.2 °F 41% 29.83 in 10.0 mi SW 11.5 mph - N/A   Unknown
5:35 PM 91.4 °F 94.0 °F 66.2 °F 43% 29.84 in 10.0 mi WSW 8.1 mph - N/A   Unknown
5:55 PM 89.6 °F 92.2 °F 66.2 °F 46% 29.84 in 10.0 mi WSW 6.9 mph - N/A   Unknown
6:15 PM 87.8 °F 90.4 °F 66.2 °F 49% 29.85 in 10.0 mi Calm Calm - N/A   Unknown
6:35 PM 87.8 °F 91.4 °F 68.0 °F 52% 29.85 in 10.0 mi Calm Calm - N/A   Unknown
6:55 PM 86.0 °F 89.4 °F 68.0 °F 55% 29.85 in 10.0 mi Calm Calm - N/A   Unknown
7:15 PM 84.2 °F 87.3 °F 68.0 °F 58% 29.86 in 10.0 mi Calm Calm - N/A   Unknown
7:35 PM 82.4 °F 85.4 °F 68.0 °F 62% 29.86 in 10.0 mi Calm Calm - N/A   Unknown
7:55 PM 84.2 °F 87.3 °F 68.0 °F 58% 29.87 in 10.0 mi Calm Calm - N/A   Unknown
8:15 PM 82.4 °F 85.4 °F 68.0 °F 62% 29.88 in - Calm Calm - N/A   Unknown
8:35 PM 78.8 °F - 71.6 °F 78% 29.89 in 10.0 mi Calm Calm - N/A   Unknown
8:55 PM 80.6 °F 83.9 °F 69.8 °F 70% 29.90 in 10.0 mi Calm Calm - N/A   Unknown
9:15 PM 78.8 °F - 71.6 °F 78% 29.90 in 10.0 mi Calm Calm - N/A   Unknown
9:35 PM 78.8 °F - 71.6 °F 78% 29.90 in 10.0 mi Calm Calm - N/A   Unknown
9:55 PM 78.8 °F - 69.8 °F 74% 29.91 in 7.0 mi North 8.1 mph 13.8 mph N/A   Unknown
10:15 PM 78.8 °F - 69.8 °F 74% 29.91 in 10.0 mi NNE 6.9 mph 12.7 mph N/A   Unknown
10:35 PM 77.0 °F - 69.8 °F 78% 29.90 in 10.0 mi Calm Calm - N/A   Unknown
10:55 PM 75.2 °F - 71.6 °F 89% 29.89 in 10.0 mi SE 4.6 mph - N/A   Unknown
11:15 PM 75.2 °F - 71.6 °F 89% 29.88 in 10.0 mi Calm Calm - N/A   Unknown
11:55 PM 75.2 °F - 71.6 °F 89% 29.87 in 10.0 mi Calm Calm - N/A   Unknown